sat.trackr.live / text

‹ back to catalog

STARLINK-5295

NORAD 55306 · 2023-010AP

PAYLOAD ACTIVE UNKNOWN

§ Identity

Operator
Country
US
Launch date
2023-01-19
Launch site
AFWTR
Launch vehicle
Mass (kg)
RCS (m²)

Purposes: comms

External: N2YO · Heavens-Above · Gunter

§ Orbital elements

Epoch: 2026-09-20T22:00:03.000096Z

Period
95.60 min
Inclination
69.9997°
Eccentricity
0.0001606
Mean motion
15.06341060 rev/d
Perigee alt
546.3 km
Apogee alt
548.5 km
Semi-major
6,925.5 km
B*
3.9234e-3
RAAN
232.2717°
Arg perigee
319.7623°
Mean anomaly
58.9228°
Rev number
576

§ Raw data

STARLINK-52951 55306U 23010AP  26263.91670139  .00058207  00000+0  39234-2 0  99942 55306  69.9997 232.2717 0001606 319.7623  58.9228 15.06341060  5766

JSON: /api/v1/satellites/55306 · /tle

For live sub-satellite position, see the globe view (requires WebGL).

§ Visibility from observer

Set your observer location to see the next 7 days of passes ≥ 10°. The values pass through the URL so the page stays shareable.

No JS? Fill the form by hand. The geolocation button needs JavaScript.